DELTA 1 DEB, 2706

Orbit data source: Space-Track

DELTA 1 DEB, 2706 is space debris in SSO originally from a launch on Thu, 26 Jan 1967 UTC launched from the Air Force Western Test Range (AFWTR). Debris objects in space refer to the collection of defunct objects orbiting the Earth. Examples of debris include non-operational satellites, rocket bodies, and fragments generated from explosions, collisions, or faulty payload assembly.

Loading next visibility...
Identifier
2706, 1967-006C
Orbit
SSO
Last TLE update
1 day ago
Origin
Manufacturer
Unknown
Mission
Spacecraft
Bus & Motor
Unknown
Mass
Unknown
Launch date (UTC)
1967-01-26 (58 years ago)
Launch vehicle
Unknown
Launch site
Air Force Western Test Range (AFWTR)
Object type
Payload
Rocket body
Debris
Shape & HBR
Unknown
Radar Cross Section
Small (<0.1 m²)

Expand to show TLE details & history

TLE from 1 day ago
0 DELTA 1 DEB
1 02706U 67006C   25127.99619200 -.00000018  00000-0  17316-3 0  9998
2 02706 102.2159 146.1685 0035785 114.0674 303.0814 12.60919048681485
Epoch: 2025-05-07T23:54Z
Definitive object data (Epoch: 2025-05-07T23:54:30.988Z)
Latitude
54.9666°
Longitude
-96.42915°
Altitude
1,412.866 km
Speed
7.166 km/s
True Right ascension
08h 33m 05s
True Declination
54° 49' 06"
Sunlit
Object was in daylight at TLE epoch
Visualization TLE readout
Latitude
13.40037°
Longitude
-80.16214°
Altitude
1,424.73 km
Speed
7.148 km/s
Apparent Right ascension
07h 06m 31s
Apparent Declination
-16° 53' 02"
Sunlit
Object is in daylight
Visualization observer readout
Local Sidereal Time
14:17:40
Azimuth
267.789° W
Elevation
-24.241°
Doppler factor
1
Orbital elements
Apogee altitude
1,444.608 km
Perigee altitude
1,388.82 km
Semi-major axis
7,794.851 km
Eccentricity
0.0035785
Inclination
102.2159°
RAAN
146.1685°
Arg. of periapsis
114.0674°
True anomaly
302.73697°
Mean anomaly
303.0814°
Eccentric anomaly
302.90927°
Mean motion
3.15378 °/min
BSTAR
0.00017316
Orbital period
114.15 mins
Loading maneuver chart data...
Loading SW <> Apogee altitude chart data...
Loading historical data...
Loading historical data...
Loading historical data...
Loading historical data...
Loading historical data...
Loading historical data...
Loading historical data...
Other satellites on launch #6 in the year 1967 (1967-01-26 UTC)

DELTA 1 DEB Visibility forecast

Observer location: undefined°, undefined°

Span
Click to sort rows by Start time (UTC) header in descending order
Start Az.
Max El. time (UTC)
Max El. Az.
Max El.
End time (UTC)
End Az.
9 mins2025-05-09 12:27:52.849Z55.653° ENE2025-05-09 12:32:52.849Z96.137° ESE16.756°2025-05-09 12:36:52.849Z127.938° SE
14 mins2025-05-09 14:18:52.849Z17.278° NNE2025-05-09 14:25:52.849Z215.838° SW44.623°2025-05-09 14:32:52.849Z201.715° SSW
8 mins2025-05-09 16:12:52.849Z339.44° N2025-05-09 16:15:52.849Z313.509° NW18.786°2025-05-09 16:20:52.849Z271.276° WNW
11 mins2025-05-09 23:22:52.849Z103.467° ESE2025-05-09 23:27:52.849Z60.138° ENE24.483°2025-05-09 23:33:52.849Z6.26° NNE
14 mins2025-05-10 01:12:52.849Z172.148° S2025-05-10 01:19:52.849Z264.272° W43.174°2025-05-10 01:26:52.849Z336.504° NNW
|